,,,PA_Meas_PMT16A,,PR_Meas_QMR101_102,,RH_Meas_QMH101,,SR_Meas_QMS101,,TA_Meas_QMH101,,GenWind,,GenWind,
date,time,status,PA,status,PR,status,RH,status,SR,status,TA,status,DirAvg,status,SpdAvg,
2008-09-22, 00:00:04,VALID,1010.71,VALID,0,VALID,93.0723,VALID,0,VALID,23.7117,VALID,186,VALID,0.439844,
2008-09-22, 00:01:04,VALID,1010.66,VALID,0,VALID,92.9884,VALID,0.105969,VALID,23.6904,VALID,186,VALID,0.248047,
2008-09-22, 00:02:04,VALID,1010.63,VALID,0,VALID,92.8969,VALID,0.105969,VALID,23.7312,VALID,186,VALID,0.329297,
2008-09-22, 00:03:04,VALID,1010.63,VALID,0,VALID,92.8512,VALID,0.105969,VALID,23.7312,VALID,185,VALID,0.243359,
2008-09-22, 00:04:04,VALID,1010.62,VALID,0,VALID,92.8512,VALID,0.105969,VALID,23.7312,VALID,168,VALID,0.457812,
2008-09-22, 00:05:04,VALID,1010.6,VALID,0,VALID,92.7902,VALID,0.105969,VALID,23.7312,VALID,154,VALID,0.515625,
2008-09-22, 00:06:04,VALID,1010.62,VALID,0,VALID,92.813,VALID,0,VALID,23.7312,VALID,152,VALID,0.565234,
2008-09-22, 00:07:04,VALID,1010.63,VALID,0,VALID,92.7673,VALID,0,VALID,23.7348,VALID,166,VALID,0.997266,
2008-09-22, 00:08:04,VALID,1010.65,VALID,0,VALID,92.7292,VALID,0,VALID,23.7135,VALID,188,VALID,0.907031,
2008-09-22, 00:09:04,VALID,1010.63,VALID,0,VALID,92.8054,VALID,0,VALID,23.7135,VALID,170,VALID,0.933594,
2008-09-22, 00:10:04,VALID,1010.64,VALID,0,VALID,92.8512,VALID,0,VALID,23.7348,VALID,190,VALID,0.709766,
2008-09-22, 00:11:04,VALID,1010.64,VALID,0,VALID,92.7978,VALID,0,VALID,23.7135,VALID,188,VALID,1.11719,
2008-09-22, 00:12:04,VALID,1010.64,VALID,0,VALID,92.6605,VALID,0,VALID,23.733,VALID,176,VALID,1.37109,
2008-09-22, 00:13:04,VALID,1010.63,VALID,0,VALID,92.5995,VALID,0,VALID,23.733,VALID,166,VALID,0.748438,
2008-09-22, 00:14:04,VALID,1010.6,VALID,0,VALID,92.5614,VALID,0,VALID,23.7525,VALID,151,VALID,0.642969,
2008-09-22, 00:15:04,VALID,1010.56,VALID,0,VALID,92.6148,VALID,0,VALID,23.772,VALID,132,VALID,1.01523,
2008-09-22, 00:16:04,VALID,1010.59,VALID,0,VALID,92.6529,VALID,0,VALID,23.772,VALID,138,VALID,1.10625,
2008-09-22, 00:17:04,VALID,1010.58,VALID,0,VALID,92.5309,VALID,0,VALID,23.8127,VALID,148,VALID,1.06016,
2008-09-22, 00:18:04,VALID,1010.58,VALID,0,VALID,92.4546,VALID,0,VALID,23.8109,VALID,165,VALID,0.774219,
2008-09-22, 00:19:04,VALID,1010.58,VALID,0,VALID,92.3708,VALID,0,VALID,23.8322,VALID,165,VALID,0.913281,
2008-09-22, 00:20:04,VALID,1010.56,VALID,0,VALID,92.3174,VALID,0,VALID,23.8127,VALID,119,VALID,0.883984,
2008-09-22, 00:21:04,VALID,1010.54,VALID,0,VALID,92.2945,VALID,0,VALID,23.8304,VALID,142,VALID,0.551562,
2008-09-22, 00:22:04,VALID,1010.54,VALID,0,VALID,92.2716,VALID,0,VALID,23.8304,VALID,168,VALID,0.765625,
2008-09-22, 00:23:04,VALID,1010.5,VALID,0,VALID,92.3097,VALID,0,VALID,23.8322,VALID,147,VALID,0.569922,
2008-09-22, 00:24:04,VALID,1010.53,VALID,0,VALID,92.2792,VALID,0,VALID,23.8127,VALID,142,VALID,1.27148,
2008-09-22, 00:25:04,VALID,1010.53,VALID,0,VALID,92.2259,VALID,0,VALID,23.8109,VALID,164,VALID,1.4043,
2008-09-22, 00:26:04,VALID,1010.55,VALID,0,VALID,92.1496,VALID,0,VALID,23.8322,VALID,169,VALID,1.38594,
2008-09-22, 00:27:04,VALID,1010.56,VALID,0,VALID,92.1267,VALID,0,VALID,23.8322,VALID,163,VALID,0.799609,
2008-09-22, 00:28:04,VALID,1010.52,VALID,0,VALID,92.1496,VALID,0,VALID,23.8517,VALID,144,VALID,0.508203,
2008-09-22, 00:29:04,VALID,1010.51,VALID,0,VALID,92.203,VALID,0,VALID,23.8109,VALID,145,VALID,0.436328,
2008-09-22, 00:30:04,VALID,1010.49,VALID,0,VALID,92.1801,VALID,0,VALID,23.8322,VALID,174,VALID,0.323047,
2008-09-22, 00:31:04,VALID,1010.46,VALID,0,VALID,92.2411,VALID,0,VALID,23.8109,VALID,174,VALID,0.0671875,
2008-09-22, 00:32:04,VALID,1010.48,VALID,0,VALID,92.264,VALID,0,VALID,23.7914,VALID,174,VALID,0.150781,
2008-09-22, 00:33:04,VALID,1010.49,VALID,0,VALID,92.2945,VALID,0,VALID,23.8109,VALID,173,VALID,0.302734,
2008-09-22, 00:34:04,VALID,1010.48,VALID,0,VALID,92.325,VALID,0,VALID,23.7914,VALID,169,VALID,0.275391,
2008-09-22, 00:35:04,VALID,1010.51,VALID,0,VALID,92.3402,VALID,0,VALID,23.772,VALID,169,VALID,0,
2008-09-22, 00:36:04,VALID,1010.47,VALID,0,VALID,92.4089,VALID,0,VALID,23.7932,VALID,169,VALID,0.245703,
2008-09-22, 00:37:04,VALID,1010.45,VALID,0,VALID,92.4318,VALID,0,VALID,23.7507,VALID,139,VALID,0.430078,
2008-09-22, 00:38:04,VALID,1010.41,VALID,0,VALID,92.4318,VALID,0,VALID,23.7914,VALID,132,VALID,0.287109,
2008-09-22, 00:39:04,VALID,1010.41,VALID,0,VALID,92.447,VALID,0,VALID,23.7701,VALID,88,VALID,0.605078,
2008-09-22, 00:40:04,VALID,1010.42,VALID,0,VALID,92.447,VALID,0,VALID,23.7701,VALID,91,VALID,0.564062,
2008-09-22, 00:41:04,VALID,1010.42,VALID,0,VALID,92.447,VALID,0,VALID,23.7701,VALID,112,VALID,0.878906,
2008-09-22, 00:42:04,VALID,1010.43,VALID,0,VALID,92.4089,VALID,0.105969,VALID,23.7896,VALID,108,VALID,0.678516,
2008-09-22, 00:43:04,VALID,1010.44,VALID,0,VALID,92.4241,VALID,0,VALID,23.7914,VALID,106,VALID,0.889844,
2008-09-22, 00:44:04,VALID,1010.43,VALID,0,VALID,92.447,VALID,0,VALID,23.7896,VALID,110,VALID,0.669141,
2008-09-22, 00:45:04,VALID,1010.39,VALID,0,VALID,92.4623,VALID,0.105969,VALID,23.7896,VALID,101,VALID,0.615625,
2008-09-22, 00:46:04,VALID,1010.4,VALID,0,VALID,92.4546,VALID,0.105969,VALID,23.7914,VALID,97,VALID,0.334766,
2008-09-22, 00:47:04,VALID,1010.38,VALID,0,VALID,92.508,VALID,0.105969,VALID,23.7701,VALID,86,VALID,0.473437,
2008-09-22, 00:48:04,VALID,1010.37,VALID,0,VALID,92.5309,VALID,0,VALID,23.7701,VALID,83,VALID,0.525781,
2008-09-22, 00:49:04,VALID,1010.32,VALID,0,VALID,92.5614,VALID,0,VALID,23.7312,VALID,68,VALID,0.752344,
2008-09-22, 00:50:04,VALID,1010.29,VALID,0,VALID,92.5919,VALID,0,VALID,23.6922,VALID,49,VALID,0.748438,
2008-09-22, 00:51:04,VALID,1010.27,VALID,0,VALID,92.6834,VALID,0.105969,VALID,23.6532,VALID,56,VALID,0.681641,
2008-09-22, 00:52:04,VALID,1010.24,VALID,0,VALID,92.7825,VALID,0.105969,VALID,23.6143,VALID,46,VALID,0.683203,
2008-09-22, 00:53:04,VALID,1010.23,VALID,0,VALID,92.9351,VALID,0,VALID,23.5753,VALID,68,VALID,0.632031,
2008-09-22, 00:54:04,VALID,1010.22,VALID,0,VALID,93.0723,VALID,0,VALID,23.5576,VALID,52,VALID,0.554688,
2008-09-22, 00:55:04,VALID,1010.22,VALID,0,VALID,93.1867,VALID,0,VALID,23.5186,VALID,46,VALID,0.5,
2008-09-22, 00:56:04,VALID,1010.22,VALID,0,VALID,93.2553,VALID,0,VALID,23.5186,VALID,62,VALID,0.601172,
2008-09-22, 00:57:04,VALID,1010.21,VALID,0,VALID,93.3468,VALID,0,VALID,23.4974,VALID,87,VALID,0.191406,
2008-09-22, 00:58:04,VALID,1010.2,VALID,0,VALID,93.3926,VALID,0,VALID,23.4584,VALID,87,VALID,0.442969,
2008-09-22, 00:59:04,VALID,1010.22,VALID,0,VALID,93.4689,VALID,0,VALID,23.4797,VALID,88,VALID,0.163281,
2008-09-22, 01:00:04,VALID,1010.19,VALID,0,VALID,93.4994,VALID,0,VALID,23.4602,VALID,88,VALID,0.0269531,
2008-09-22, 01:01:04,VALID,1010.2,VALID,0,VALID,93.568,VALID,0,VALID,23.4602,VALID,88,VALID,0.327734,
2008-09-22, 01:02:04,VALID,1010.18,VALID,0,VALID,93.629,VALID,0,VALID,23.4389,VALID,88,VALID,0.208594,
2008-09-22, 01:03:04,VALID,1010.21,VALID,0,VALID,93.6748,VALID,0,VALID,23.4389,VALID,90,VALID,0.444531,
2008-09-22, 01:04:04,VALID,1010.17,VALID,0,VALID,93.7053,VALID,0,VALID,23.4797,VALID,90,VALID,0.249219,
2008-09-22, 01:05:04,VALID,1010.17,VALID,0,VALID,93.69,VALID,0,VALID,23.4602,VALID,171,VALID,0.476953,
2008-09-22, 01:06:04,VALID,1010.18,VALID,0,VALID,93.6824,VALID,0,VALID,23.4389,VALID,141,VALID,0.560156,
2008-09-22, 01:07:04,VALID,1010.17,VALID,0,VALID,93.7053,VALID,0,VALID,23.4389,VALID,155,VALID,0.507813,
2008-09-22, 01:08:04,VALID,1010.17,VALID,0,VALID,93.6671,VALID,0.105969,VALID,23.4602,VALID,156,VALID,0.469922,
2008-09-22, 01:09:04,VALID,1010.19,VALID,0,VALID,93.6442,VALID,0,VALID,23.4389,VALID,156,VALID,0.585156,
2008-09-22, 01:10:04,VALID,1010.2,VALID,0,VALID,93.629,VALID,0.105969,VALID,23.4194,VALID,156,VALID,0.335156,
2008-09-22, 01:11:04,VALID,1010.21,VALID,0,VALID,93.629,VALID,0.105969,VALID,23.4,VALID,142,VALID,0.466406,
2008-09-22, 01:12:04,VALID,1010.21,VALID,0,VALID,93.6671,VALID,0.105969,VALID,23.4,VALID,139,VALID,0.547656,
2008-09-22, 01:13:04,VALID,1010.19,VALID,0,VALID,93.6976,VALID,0,VALID,23.4,VALID,136,VALID,0.627734,
2008-09-22, 01:14:04,VALID,1010.19,VALID,0,VALID,93.7586,VALID,0,VALID,23.4212,VALID,120,VALID,0.872656,
2008-09-22, 01:15:04,VALID,1010.14,VALID,0,VALID,93.7968,VALID,0.105969,VALID,23.4,VALID,124,VALID,0.869531,
2008-09-22, 01:16:04,VALID,1010.12,VALID,0,VALID,93.7968,VALID,0.105969,VALID,23.4,VALID,105,VALID,0.580469,
2008-09-22, 01:17:04,VALID,1010.09,VALID,0,VALID,93.8273,VALID,0.105969,VALID,23.4194,VALID,101,VALID,0.630078,
2008-09-22, 01:18:04,VALID,1010.08,VALID,0,VALID,93.812,VALID,0.105969,VALID,23.4,VALID,77,VALID,0.511719,
2008-09-22, 01:19:04,VALID,1010.05,VALID,0,VALID,93.8273,VALID,0,VALID,23.4212,VALID,76,VALID,0.55625,
2008-09-22, 01:20:04,VALID,1010.07,VALID,0,VALID,93.7968,VALID,0,VALID,23.4194,VALID,76,VALID,0.808984,
2008-09-22, 01:21:04,VALID,1010.06,VALID,0,VALID,93.812,VALID,0.105969,VALID,23.4017,VALID,82,VALID,0.874219,
2008-09-22, 01:22:04,VALID,1010.05,VALID,0,VALID,93.8273,VALID,0.105969,VALID,23.3805,VALID,83,VALID,0.69375,
2008-09-22, 01:23:04,VALID,1010.06,VALID,0,VALID,93.8425,VALID,0.105969,VALID,23.361,VALID,84,VALID,0.635547,
2008-09-22, 01:24:04,VALID,1010,VALID,0,VALID,93.8578,VALID,0,VALID,23.3628,VALID,79,VALID,0.770312,
2008-09-22, 01:25:04,VALID,1009.97,VALID,0,VALID,93.9035,VALID,0,VALID,23.3415,VALID,61,VALID,0.785547,
2008-09-22, 01:26:04,VALID,1009.96,VALID,0,VALID,93.934,VALID,0,VALID,23.3415,VALID,47,VALID,0.600391,
2008-09-22, 01:27:04,VALID,1009.91,VALID,0,VALID,93.9645,VALID,0.105969,VALID,23.322,VALID,52,VALID,0.630469,
2008-09-22, 01:28:04,VALID,1009.87,VALID,0,VALID,93.9798,VALID,0,VALID,23.3026,VALID,47,VALID,0.583984,
2008-09-22, 01:29:04,VALID,1009.83,VALID,0,VALID,94.0484,VALID,0,VALID,23.3026,VALID,46,VALID,0.632031,
2008-09-22, 01:30:04,VALID,1009.82,VALID,0,VALID,94.0713,VALID,0,VALID,23.2441,VALID,32,VALID,0.351563,
2008-09-22, 01:31:04,VALID,1009.82,VALID,0,VALID,94.0942,VALID,0,VALID,23.2441,VALID,34,VALID,0.502344,
2008-09-22, 01:32:04,VALID,1009.77,VALID,0,VALID,94.1171,VALID,0.105969,VALID,23.2246,VALID,43,VALID,0.548828,
2008-09-22, 01:33:04,VALID,1009.76,VALID,0,VALID,94.1704,VALID,0.105969,VALID,23.2246,VALID,53,VALID,0.621094,
2008-09-22, 01:34:04,VALID,1009.75,VALID,0,VALID,94.2314,VALID,0.105969,VALID,23.2051,VALID,47,VALID,0.834375,
2008-09-22, 01:35:04,VALID,1009.73,VALID,0,VALID,94.2619,VALID,0,VALID,23.1857,VALID,32,VALID,0.730859,
2008-09-22, 01:36:04,VALID,1009.68,VALID,0,VALID,94.3001,VALID,0.105969,VALID,23.1857,VALID,28,VALID,0.904297,
2008-09-22, 01:37:04,VALID,1009.66,VALID,0,VALID,94.3534,VALID,0,VALID,23.1874,VALID,31,VALID,0.551172,
2008-09-22, 01:38:04,VALID,1009.63,VALID,0,VALID,94.3687,VALID,0,VALID,23.1679,VALID,57,VALID,0.503125,
2008-09-22, 01:39:04,VALID,1009.63,VALID,0,VALID,94.3611,VALID,0,VALID,23.1485,VALID,23,VALID,0.178125,
2008-09-22, 01:40:04,VALID,1009.6,VALID,0,VALID,94.3687,VALID,0,VALID,23.1485,VALID,33,VALID,0.335156,
2008-09-22, 01:41:04,VALID,1009.57,VALID,0,VALID,94.4145,VALID,0,VALID,23.129,VALID,32,VALID,0.441016,
2008-09-22, 01:42:04,VALID,1009.6,VALID,0,VALID,94.445,VALID,0,VALID,23.1095,VALID,42,VALID,0.588281,
2008-09-22, 01:43:04,VALID,1009.59,VALID,0,VALID,94.4755,VALID,0,VALID,23.1095,VALID,45,VALID,0.635938,
2008-09-22, 01:44:04,VALID,1009.56,VALID,0,VALID,94.5136,VALID,0,VALID,23.09,VALID,35,VALID,0.267969,
2008-09-22, 01:45:04,VALID,1009.56,VALID,0,VALID,94.5441,VALID,0,VALID,23.0705,VALID,30,VALID,0.212109,
2008-09-22, 01:46:04,VALID,1009.54,VALID,0,VALID,94.5822,VALID,0,VALID,23.0705,VALID,9,VALID,0.430078,
2008-09-22, 01:47:04,VALID,1009.53,VALID,0,VALID,94.5975,VALID,0,VALID,23.0705,VALID,9,VALID,0.23125,
2008-09-22, 01:48:04,VALID,1009.53,VALID,0,VALID,94.6203,VALID,0,VALID,23.0511,VALID,17,VALID,0.127734,
2008-09-22, 01:49:04,VALID,1009.53,VALID,0,VALID,94.6737,VALID,0,VALID,23.0511,VALID,19,VALID,0.335547,
2008-09-22, 01:50:04,VALID,1009.49,VALID,0,VALID,94.7119,VALID,0,VALID,23.0511,VALID,26,VALID,0.172656,
2008-09-22, 01:51:04,VALID,1009.5,VALID,0,VALID,94.75,VALID,0,VALID,23.0705,VALID,37,VALID,0.252344,
2008-09-22, 01:52:04,VALID,1009.48,VALID,0,VALID,94.75,VALID,0,VALID,23.0511,VALID,37,VALID,0.162891,
2008-09-22, 01:53:04,VALID,1009.49,VALID,0,VALID,94.7729,VALID,0,VALID,23.0511,VALID,37,VALID,0.257031,
2008-09-22, 01:54:04,VALID,1009.52,VALID,0,VALID,94.7957,VALID,0,VALID,23.0511,VALID,37,VALID,0.0359375,
2008-09-22, 01:55:04,VALID,1009.49,VALID,0,VALID,94.8262,VALID,0,VALID,23.0511,VALID,37,VALID,0.398438,
2008-09-22, 01:56:04,VALID,1009.48,VALID,0,VALID,94.8415,VALID,0,VALID,23.0511,VALID,35,VALID,0.431641,
2008-09-22, 01:57:04,VALID,1009.48,VALID,0,VALID,94.8568,VALID,0,VALID,23.0316,VALID,43,VALID,0.505469,
2008-09-22, 01:58:04,VALID,1009.45,VALID,0,VALID,94.8644,VALID,0,VALID,23.0316,VALID,49,VALID,0.104297,
2008-09-22, 01:59:04,VALID,1009.45,VALID,0,VALID,94.8568,VALID,0,VALID,23.0316,VALID,49,VALID,0.21875,
2008-09-22, 02:00:04,VALID,1009.44,VALID,0,VALID,94.8949,VALID,0,VALID,23.0316,VALID,55,VALID,0.351953,
2008-09-22, 02:01:04,VALID,1009.43,VALID,0,VALID,94.9178,VALID,0.105969,VALID,23.0298,VALID,37,VALID,0.202734,
2008-09-22, 02:02:04,VALID,1009.44,VALID,0,VALID,94.9406,VALID,0.105969,VALID,23.0103,VALID,37,VALID,0,
2008-09-22, 02:03:04,VALID,1009.43,VALID,0,VALID,94.9635,VALID,0.105969,VALID,23.0281,VALID,37,VALID,0.028125,
2008-09-22, 02:04:04,VALID,1009.46,VALID,0,VALID,94.9406,VALID,0.105969,VALID,23.0298,VALID,37,VALID,0.0425781,
2008-09-22, 02:05:04,VALID,1009.45,VALID,0,VALID,94.9788,VALID,0.105969,VALID,23.0298,VALID,37,VALID,0,
2008-09-22, 02:06:04,VALID,1009.44,VALID,0,VALID,94.994,VALID,0.105969,VALID,23.0298,VALID,37,VALID,0.158594,
2008-09-22, 02:07:04,VALID,1009.44,VALID,0,VALID,95.0169,VALID,0,VALID,23.0316,VALID,348,VALID,0.429297,
2008-09-22, 02:08:04,VALID,1009.42,VALID,0,VALID,95.0169,VALID,0,VALID,23.0511,VALID,347,VALID,0.377734,
2008-09-22, 02:09:04,VALID,1009.39,VALID,0,VALID,95.0169,VALID,0,VALID,23.0316,VALID,346,VALID,0.290625,
2008-09-22, 02:10:04,VALID,1009.39,VALID,0,VALID,94.994,VALID,0,VALID,23.0316,VALID,3,VALID,0.492188,
2008-09-22, 02:11:04,VALID,1009.39,VALID,0,VALID,95.0169,VALID,0,VALID,23.0316,VALID,3,VALID,0.121484,
2008-09-22, 02:12:04,VALID,1009.41,VALID,0,VALID,94.994,VALID,0,VALID,23.0121,VALID,2,VALID,0.119922,
2008-09-22, 02:13:04,VALID,1009.43,VALID,0,VALID,95.0245,VALID,0,VALID,23.0121,VALID,2,VALID,0.277734,
2008-09-22, 02:14:04,VALID,1009.44,VALID,0,VALID,95.0474,VALID,0,VALID,23.0316,VALID,317,VALID,0.314844,
2008-09-22, 02:15:04,VALID,1009.47,VALID,0,VALID,95.0474,VALID,0,VALID,23.0316,VALID,315,VALID,0.423828,
2008-09-22, 02:16:04,VALID,1009.47,VALID,0,VALID,95.0626,VALID,0,VALID,23.0511,VALID,315,VALID,0.457031,
2008-09-22, 02:17:04,VALID,1009.47,VALID,0,VALID,95.0703,VALID,0,VALID,23.0511,VALID,320,VALID,0.671875,
2008-09-22, 02:18:04,VALID,1009.49,VALID,0,VALID,95.0626,VALID,0,VALID,23.0511,VALID,328,VALID,0.3625,
2008-09-22, 02:19:04,VALID,1009.47,VALID,0,VALID,95.055,VALID,0,VALID,23.0511,VALID,336,VALID,0.19375,
2008-09-22, 02:20:04,VALID,1009.48,VALID,0,VALID,95.0398,VALID,0,VALID,23.0511,VALID,336,VALID,0.204688,
2008-09-22, 02:21:04,VALID,1009.5,VALID,0,VALID,95.0169,VALID,0,VALID,23.0316,VALID,339,VALID,0.113672,
2008-09-22, 02:22:04,VALID,1009.48,VALID,0,VALID,94.994,VALID,0,VALID,23.0121,VALID,347,VALID,0.235938,
2008-09-22, 02:23:04,VALID,1009.49,VALID,0,VALID,94.9788,VALID,0,VALID,22.9714,VALID,354,VALID,0.35625,
2008-09-22, 02:24:04,VALID,1009.49,VALID,0,VALID,94.994,VALID,0,VALID,23.0121,VALID,54,VALID,0.390625,
2008-09-22, 02:25:04,VALID,1009.49,VALID,0,VALID,95.0169,VALID,0,VALID,23.0121,VALID,79,VALID,0.546484,
2008-09-22, 02:26:04,VALID,1009.51,VALID,0,VALID,95.0169,VALID,0,VALID,22.9926,VALID,90,VALID,0.523047,
2008-09-22, 02:27:04,VALID,1009.5,VALID,0,VALID,95.0169,VALID,0,VALID,22.9926,VALID,89,VALID,0.535547,
2008-09-22, 02:28:04,VALID,1009.47,VALID,0,VALID,95.0169,VALID,0,VALID,22.9926,VALID,72,VALID,0.685156,
2008-09-22, 02:29:04,VALID,1009.45,VALID,0,VALID,95.0398,VALID,0,VALID,23.0333,VALID,69,VALID,0.443359,
2008-09-22, 02:30:04,VALID,1009.47,VALID,0,VALID,95.0321,VALID,0,VALID,22.9731,VALID,49,VALID,0.429297,
2008-09-22, 02:31:04,VALID,1009.45,VALID,0,VALID,95.0245,VALID,0,VALID,22.9731,VALID,50,VALID,0.325,
2008-09-22, 02:32:04,VALID,1009.47,VALID,0,VALID,95.0169,VALID,0,VALID,22.9536,VALID,50,VALID,0.184375,
2008-09-22, 02:33:04,VALID,1009.43,VALID,0,VALID,95.0398,VALID,0,VALID,22.9536,VALID,50,VALID,0.203906,
2008-09-22, 02:34:04,VALID,1009.43,VALID,0,VALID,95.055,VALID,0,VALID,22.9342,VALID,85,VALID,0.408203,
2008-09-22, 02:35:04,VALID,1009.4,VALID,0,VALID,95.0321,VALID,0,VALID,22.9536,VALID,80,VALID,0.386328,
2008-09-22, 02:36:04,VALID,1009.41,VALID,0,VALID,95.0779,VALID,0,VALID,22.9342,VALID,45,VALID,0.261719,
2008-09-22, 02:37:04,VALID,1009.4,VALID,0,VALID,95.055,VALID,0,VALID,22.9147,VALID,45,VALID,0,
2008-09-22, 02:38:04,VALID,1009.41,VALID,0,VALID,95.055,VALID,0,VALID,22.8952,VALID,45,VALID,0.381641,
2008-09-22, 02:39:04,VALID,1009.41,VALID,0,VALID,95.0321,VALID,0,VALID,22.874,VALID,50,VALID,0.322656,
2008-09-22, 02:40:04,VALID,1009.42,VALID,0,VALID,95.0779,VALID,0,VALID,22.8757,VALID,21,VALID,0,
2008-09-22, 02:41:04,VALID,1009.43,VALID,0,VALID,95.1008,VALID,0,VALID,22.8757,VALID,21,VALID,0.160156,
2008-09-22, 02:42:04,VALID,1009.41,VALID,0,VALID,95.116,VALID,0,VALID,22.8757,VALID,359,VALID,0.233203,
2008-09-22, 02:43:04,VALID,1009.41,VALID,0,VALID,95.116,VALID,0,VALID,22.8952,VALID,346,VALID,0.133984,
2008-09-22, 02:44:04,VALID,1009.4,VALID,0,VALID,95.1236,VALID,0,VALID,22.8952,VALID,292,VALID,0.344531,
2008-09-22, 02:45:04,VALID,1009.39,VALID,0,VALID,95.1465,VALID,0,VALID,22.8757,VALID,221,VALID,0.100391,
2008-09-22, 02:46:04,VALID,1009.38,VALID,0,VALID,95.1618,VALID,0,VALID,22.8952,VALID,221,VALID,0.208203,
2008-09-22, 02:47:04,VALID,1009.39,VALID,0,VALID,95.1618,VALID,0,VALID,22.8952,VALID,223,VALID,0.20625,
2008-09-22, 02:48:04,VALID,1009.37,VALID,0,VALID,95.177,VALID,0,VALID,22.9164,VALID,279,VALID,0.271094,
2008-09-22, 02:49:04,VALID,1009.41,VALID,0,VALID,95.1694,VALID,0,VALID,22.9147,VALID,279,VALID,0,
2008-09-22, 02:50:04,VALID,1009.42,VALID,0,VALID,95.1847,VALID,0,VALID,22.8952,VALID,43,VALID,0.516797,
2008-09-22, 02:51:04,VALID,1009.4,VALID,0,VALID,95.177,VALID,0,VALID,22.8757,VALID,44,VALID,0.0589844,
2008-09-22, 02:52:04,VALID,1009.43,VALID,0,VALID,95.1694,VALID,0,VALID,22.8952,VALID,56,VALID,0.615234,
2008-09-22, 02:53:04,VALID,1009.41,VALID,0,VALID,95.1694,VALID,0,VALID,22.8545,VALID,58,VALID,0.271484,
2008-09-22, 02:54:04,VALID,1009.4,VALID,0,VALID,95.1999,VALID,0,VALID,22.8757,VALID,46,VALID,0.802344,
2008-09-22, 02:55:04,VALID,1009.43,VALID,0,VALID,95.1694,VALID,0,VALID,22.8562,VALID,39,VALID,0.400391,
2008-09-22, 02:56:04,VALID,1009.42,VALID,0,VALID,95.1694,VALID,0,VALID,22.8562,VALID,40,VALID,0,
2008-09-22, 02:57:04,VALID,1009.4,VALID,0,VALID,95.1999,VALID,0,VALID,22.8757,VALID,18,VALID,0.517578,
2008-09-22, 02:58:04,VALID,1009.43,VALID,0,VALID,95.2304,VALID,0,VALID,22.8757,VALID,38,VALID,0.363281,
2008-09-22, 02:59:04,VALID,1009.44,VALID,0,VALID,95.2075,VALID,0,VALID,22.8757,VALID,38,VALID,0.00117188,
2008-09-22, 03:00:04,VALID,1009.46,VALID,0,VALID,95.2228,VALID,0,VALID,22.8757,VALID,29,VALID,0.00117188,
2008-09-22, 03:01:04,VALID,1009.45,VALID,0,VALID,95.2304,VALID,0,VALID,22.8935,VALID,282,VALID,0.345313,
2008-09-22, 03:02:04,VALID,1009.48,VALID,0,VALID,95.2457,VALID,0,VALID,22.8952,VALID,357,VALID,0.170312,
2008-09-22, 03:03:04,VALID,1009.48,VALID,0,VALID,95.2533,VALID,0,VALID,22.8952,VALID,357,VALID,0.00820312,
2008-09-22, 03:04:04,VALID,1009.46,VALID,0,VALID,95.2685,VALID,0,VALID,22.9342,VALID,356,VALID,0.0515625,
2008-09-22, 03:05:04,VALID,1009.47,VALID,0,VALID,95.2762,VALID,0,VALID,22.9342,VALID,10,VALID,0.758984,
2008-09-22, 03:06:04,VALID,1009.48,VALID,0,VALID,95.2762,VALID,0,VALID,22.9536,VALID,29,VALID,0.546875,
2008-09-22, 03:07:04,VALID,1009.48,VALID,0,VALID,95.2762,VALID,0,VALID,22.9342,VALID,37,VALID,0.159375,
2008-09-22, 03:08:04,VALID,1009.5,VALID,0,VALID,95.2762,VALID,0,VALID,22.9342,VALID,38,VALID,0.476172,
2008-09-22, 03:09:04,VALID,1009.49,VALID,0,VALID,95.2762,VALID,0,VALID,22.9536,VALID,38,VALID,0,
2008-09-22, 03:10:04,VALID,1009.5,VALID,0,VALID,95.2914,VALID,0,VALID,22.9536,VALID,28,VALID,0.494531,
2008-09-22, 03:11:04,VALID,1009.52,VALID,0,VALID,95.2914,VALID,0,VALID,22.9731,VALID,10,VALID,0.05,
2008-09-22, 03:12:04,VALID,1009.51,VALID,0,VALID,95.299,VALID,0,VALID,22.9536,VALID,10,VALID,0,
2008-09-22, 03:13:04,VALID,1009.52,VALID,0,VALID,95.2914,VALID,0,VALID,22.9731,VALID,10,VALID,0.00117188,
2008-09-22, 03:14:04,VALID,1009.53,VALID,0,VALID,95.299,VALID,0,VALID,22.9731,VALID,41,VALID,0.195313,
2008-09-22, 03:15:04,VALID,1009.52,VALID,0,VALID,95.299,VALID,0,VALID,22.9926,VALID,41,VALID,0.171875,
2008-09-22, 03:16:04,VALID,1009.53,VALID,0,VALID,95.3143,VALID,0,VALID,22.9926,VALID,44,VALID,0.582812,
2008-09-22, 03:17:04,VALID,1009.53,VALID,0,VALID,95.2914,VALID,0,VALID,22.9926,VALID,22,VALID,0.769141,
2008-09-22, 03:18:04,VALID,1009.48,VALID,0,VALID,95.3143,VALID,0,VALID,22.9926,VALID,65,VALID,0.578906,
2008-09-22, 03:19:04,VALID,1009.54,VALID,0,VALID,95.2838,VALID,0,VALID,22.9926,VALID,82,VALID,0.532422,
2008-09-22, 03:20:04,VALID,1009.51,VALID,0,VALID,95.2838,VALID,0,VALID,22.9926,VALID,80,VALID,0.0769531,
2008-09-22, 03:21:04,VALID,1009.5,VALID,0,VALID,95.2838,VALID,0,VALID,23.0121,VALID,83,VALID,0.801953,
2008-09-22, 03:22:04,VALID,1009.46,VALID,0,VALID,95.2914,VALID,0,VALID,23.0121,VALID,95,VALID,0.764063,
2008-09-22, 03:23:04,VALID,1009.47,VALID,0,VALID,95.2762,VALID,0,VALID,23.0121,VALID,76,VALID,0.584766,
2008-09-22, 03:24:04,VALID,1009.47,VALID,0,VALID,95.2838,VALID,0,VALID,23.0511,VALID,74,VALID,0.73125,
2008-09-22, 03:25:04,VALID,1009.46,VALID,0,VALID,95.2838,VALID,0,VALID,23.0511,VALID,71,VALID,0.702734,
2008-09-22, 03:26:04,VALID,1009.43,VALID,0,VALID,95.2914,VALID,0,VALID,23.0705,VALID,99,VALID,0.720312,
2008-09-22, 03:27:04,VALID,1009.42,VALID,0,VALID,95.2914,VALID,0,VALID,23.0705,VALID,74,VALID,0.594141,
2008-09-22, 03:28:04,VALID,1009.42,VALID,0,VALID,95.2838,VALID,0,VALID,23.0511,VALID,75,VALID,0.855078,
2008-09-22, 03:29:04,VALID,1009.38,VALID,0,VALID,95.2685,VALID,0,VALID,23.0705,VALID,96,VALID,0.787109,
2008-09-22, 03:30:04,VALID,1009.4,VALID,0,VALID,95.2609,VALID,0,VALID,23.0705,VALID,72,VALID,0.674609,
2008-09-22, 03:31:04,VALID,1009.37,VALID,0,VALID,95.2609,VALID,0,VALID,23.09,VALID,76,VALID,1.35312,
2008-09-22, 03:32:04,VALID,1009.4,VALID,0,VALID,95.2457,VALID,0,VALID,23.09,VALID,89,VALID,1.04258,
2008-09-22, 03:33:04,VALID,1009.4,VALID,0,VALID,95.2533,VALID,0,VALID,23.0883,VALID,92,VALID,1.62891,
2008-09-22, 03:34:04,VALID,1009.44,VALID,0,VALID,95.2609,VALID,0,VALID,23.1095,VALID,87,VALID,1.11641,
2008-09-22, 03:35:04,VALID,1009.46,VALID,0,VALID,95.238,VALID,0,VALID,23.1095,VALID,75,VALID,0.573438,
2008-09-22, 03:36:04,VALID,1009.45,VALID,0,VALID,95.2457,VALID,0,VALID,23.129,VALID,77,VALID,0.908203,
2008-09-22, 03:37:04,VALID,1009.47,VALID,0,VALID,95.2533,VALID,0,VALID,23.129,VALID,92,VALID,0.630469,
2008-09-22, 03:38:04,VALID,1009.44,VALID,0,VALID,95.2304,VALID,0,VALID,23.129,VALID,89,VALID,1.52266,
2008-09-22, 03:39:04,VALID,1009.46,VALID,0,VALID,95.2228,VALID,0,VALID,23.1485,VALID,72,VALID,0.981641,
2008-09-22, 03:40:04,VALID,1009.48,VALID,0,VALID,95.2075,VALID,0,VALID,23.1077,VALID,56,VALID,1.34492,
2008-09-22, 03:41:04,VALID,1009.49,VALID,0,VALID,95.1999,VALID,0,VALID,23.129,VALID,69,VALID,1.20977,
2008-09-22, 03:42:04,VALID,1009.51,VALID,0,VALID,95.1923,VALID,0,VALID,23.1502,VALID,65,VALID,1.07305,
2008-09-22, 03:43:04,VALID,1009.52,VALID,0,VALID,95.1847,VALID,0,VALID,23.129,VALID,63,VALID,1.13594,
2008-09-22, 03:44:04,VALID,1009.55,VALID,0,VALID,95.1999,VALID,0,VALID,23.1502,VALID,65,VALID,0.764844,